Change the Weather History Date:

Monday, September 30, 2013

  Actual Average Record
Temperature  
Mean Temperature 64 °F -  
Max Temperature 73 °F 65 °F 84 °F (1997)
Min Temperature 56 °F 50 °F 46 °F (2000)
Growing Degree Days 14 (Base 50)    
Moisture  
Dew Point 57 °F    
Average Humidity 75    
Maximum Humidity 94    
Minimum Humidity 43    
Precipitation  
Precipitation 0.00 in 0.07 in - ()
Sea Level Pressure  
Sea Level Pressure 29.74 in    
Wind  
Wind Speed 4 mph ()    
Max Wind Speed 10 mph    
Max Gust Speed -    
Visibility 6.5 miles    
Events      
Averages and records for this station are not official NWS values.
T = Trace of Precipitation, MM = Missing Value Source: Averaged Metar Reports

Daily Weather History Graph

Daily Weather History Graph

Search for Another Location

Airport or City:

Trip Planner

Search our weather history database for the weather conditions in past years. The results will help you decide how hot, cold, wet, or windy it might be!

Date:

Astronomy

Sep. 30, 2013 Rise Set
Actual Time 7:50 AM CEST 7:37 PM CEST
Civil Twilight 7:22 AM CEST 8:05 PM CEST
Nautical Twilight 6:48 AM CEST 8:39 PM CEST
Astronomical Twilight 6:15 AM CEST 9:12 PM CEST
Moon 3:06 AM CEST (9/30) 5:05 PM CEST (9/30)
Length of Visible Light 12h 43m
Length of Day
11h 46m
Waning Crescent, 21% of the Moon is Illuminated
Sep 30
Waning Crescent
Oct 5
New
Oct 12
First Quarter
Oct 19
Full
Oct 27
Last Quarter

Hourly Weather History & Observations

Time (CEST) Temp. Dew Point Humidity Pressure Visibility Wind Dir Wind Speed Gust Speed Precip Events Conditions
12:00 AM 64.4 °F 57.2 °F 77% 29.77 in 6.2 mi WSW 4.6 mph - N/A   Unknown
12:30 AM 64.4 °F 57.2 °F 77% 29.77 in 6.2 mi WSW 6.9 mph - N/A   Unknown
1:00 AM 64.4 °F 57.2 °F 77% 29.77 in 6.2 mi WSW 8.1 mph - N/A   Unknown
1:30 AM 64.4 °F 57.2 °F 77% 29.74 in 6.2 mi West 5.8 mph - N/A   Unknown
2:00 AM 63 °F 57 °F 74% 29.75 in 37 mi WSW 5.8 mph - -   Clear
2:00 AM 62.6 °F 57.2 °F 82% 29.74 in 6.2 mi WSW 5.8 mph - N/A   Unknown
2:30 AM 62.6 °F 57.2 °F 82% 29.74 in 6.2 mi WSW 5.8 mph - N/A   Unknown
3:00 AM 62.6 °F 57.2 °F 82% 29.74 in 6.2 mi SW 5.8 mph - N/A   Unknown
3:30 AM 60.8 °F 55.4 °F 82% 29.74 in 6.2 mi SSE 3.5 mph - N/A   Unknown
4:00 AM 59.0 °F 57.2 °F 94% 29.74 in 6.2 mi SSE 3.5 mph - N/A   Unknown
4:30 AM 59.0 °F 55.4 °F 88% 29.74 in 6.2 mi South 3.5 mph - N/A   Unknown
5:00 AM 59.0 °F 55.4 °F 88% 29.71 in 6.2 mi South 3.5 mph - N/A   Unknown
5:30 AM 57.2 °F 55.4 °F 94% 29.71 in 6.2 mi South 3.5 mph - N/A   Unknown
6:00 AM 57.2 °F 55.4 °F 94% 29.71 in 6.2 mi South 3.5 mph - N/A   Unknown
6:30 AM 57.2 °F 55.4 °F 94% 29.71 in 6.2 mi South 4.6 mph - N/A   Unknown
7:00 AM 57.2 °F 55.4 °F 94% 29.71 in 6.2 mi South 6.9 mph - N/A   Unknown
7:30 AM 57.2 °F 55.4 °F 94% 29.71 in 6.2 mi SSW 6.9 mph - N/A   Unknown
8:00 AM 56 °F 54 °F 93% 29.72 in 19 mi South 3.5 mph - -   Scattered Clouds
8:00 AM 57.2 °F 55.4 °F 94% 29.71 in 6.2 mi South 3.5 mph - N/A   Unknown
9:00 AM 59.0 °F 55.4 °F 88% 29.71 in - SSE 2.3 mph - N/A   Clear
9:30 AM 60.8 °F 57.2 °F 88% 29.71 in 6.2 mi South 2.3 mph - N/A   Unknown
10:00 AM 62.6 °F 57.2 °F 82% 29.71 in 6.2 mi South 4.6 mph - N/A   Partly Cloudy
10:30 AM 66.2 °F 57.2 °F 73% 29.71 in 6.2 mi South 3.5 mph - N/A   Unknown
11:00 AM 69.8 °F 57.2 °F 64% 29.71 in 6.2 mi Variable 1.2 mph - N/A   Scattered Clouds
11:30 AM 69.8 °F 57.2 °F 64% 29.71 in 6.2 mi Variable 1.2 mph - N/A   Unknown
12:00 PM 69.8 °F 55.4 °F 60% 29.71 in 6.2 mi Variable 2.3 mph - N/A   Overcast
12:30 PM 69.8 °F 55.4 °F 60% 29.71 in 6.2 mi Variable 1.2 mph - N/A   Unknown
1:00 PM 69.8 °F 55.4 °F 60% 29.74 in 6.2 mi Variable 2.3 mph - N/A   Overcast
1:30 PM 71.6 °F 55.4 °F 57% 29.74 in 6.2 mi Variable 2.3 mph - N/A   Unknown
2:00 PM 73 °F 55 °F 43% 29.73 in 31 mi WSW 2.3 mph - -   Clear
2:00 PM 73.4 °F 55.4 °F 53% 29.74 in 6.2 mi Variable 2.3 mph - N/A   Mostly Cloudy
2:30 PM 73.4 °F 55.4 °F 53% 29.74 in 6.2 mi Variable 2.3 mph - N/A   Mostly Cloudy
3:00 PM 73.4 °F 55.4 °F 53% 29.74 in 6.2 mi WNW 6.9 mph - N/A   Overcast
3:30 PM 73.4 °F 55.4 °F 53% 29.74 in 6.2 mi WNW 5.8 mph - N/A   Overcast
4:00 PM 73.4 °F 55.4 °F 53% 29.74 in 6.2 mi WNW 8.1 mph - N/A   Overcast
4:30 PM 73.4 °F 57.2 °F 57% 29.74 in 6.2 mi WNW 10.4 mph - N/A   Overcast
5:00 PM 71.6 °F 59.0 °F 64% 29.74 in 6.2 mi NNW 10.4 mph - N/A   Mostly Cloudy
5:30 PM 71.6 °F 60.8 °F 69% 29.74 in 6.2 mi NNE 5.8 mph - N/A   Unknown
6:00 PM 71.6 °F 59.0 °F 64% 29.74 in 6.2 mi Calm Calm - N/A   Unknown
6:30 PM 71.6 °F 59.0 °F 64% 29.74 in 6.2 mi Variable 3.5 mph - N/A   Unknown
7:00 PM 71.6 °F 59.0 °F 64% 29.74 in 6.2 mi Variable 3.5 mph - N/A   Unknown
7:30 PM 69.8 °F 59.0 °F 68% 29.74 in 6.2 mi Variable 2.3 mph - N/A   Unknown
8:00 PM 69 °F 59 °F 62% 29.75 in 10 mi West 3.5 mph - -   Clear
8:00 PM 69.8 °F 59.0 °F 68% 29.74 in 6.2 mi West 3.5 mph - N/A   Unknown
8:30 PM 68.0 °F 59.0 °F 73% 29.77 in 6.2 mi WSW 4.6 mph - N/A   Unknown
9:00 PM 68.0 °F 59.0 °F 73% 29.77 in 6.2 mi Variable 3.5 mph - N/A   Partly Cloudy
9:30 PM 66.2 °F 59.0 °F 78% 29.77 in 6.2 mi SW 3.5 mph - N/A   Unknown
10:00 PM 64.4 °F 60.8 °F 88% 29.77 in 6.2 mi Variable 3.5 mph - N/A   Unknown
10:30 PM 64.4 °F 60.8 °F 88% 29.77 in 6.2 mi South 4.6 mph - N/A   Unknown
11:00 PM 62.6 °F 59.0 °F 88% 29.77 in 6.2 mi South 3.5 mph - N/A   Unknown
11:30 PM 62.6 °F 60.8 °F 94% 29.77 in 6.2 mi SSW 4.6 mph - N/A   Partly Cloudy